DW4221 Weather Reports


time (UTC)temp
C
wind
direction
speed
KPH
gust
KPH
rain 1hr
cm
rain 24hr
cm
rain mn
cm
humidity
%
barometer
mb
20260905101606 16 0 0.0 3.2 0.00 0.03 0.00 96 1019.1
20260905100100 16 0 0.0 4.8 0.00 0.03 0.00 97 1019.0
20260905094607 16 0 0.0 4.8 0.00 0.03 0.00 97 1018.9
20260905093055 16 0 0.0 4.8 0.00 0.03 0.00 97 1019.2
20260905091559 16 0 0.0 0.0 0.00 0.03 0.00 97 1019.2
20260905090055 16 0 0.0 1.6 0.00 0.03 0.00 96 1019.0
20260905084559 16 42 0.0 4.8 0.00 0.03 0.00 96 1019.1
20260905083103 16 115 0.0 3.2 0.00 0.03 0.00 96 1019.2
20260905081601 16 0 0.0 1.6 0.00 0.03 0.00 96 1019.1
20260905080106 16 0 0.0 0.0 0.00 0.03 0.00 96 1019.3
20260905074605 16 0 0.0 0.0 0.00 0.03 0.00 96 1019.2
20260905073104 16 0 0.0 0.0 0.00 0.03 0.00 96 1019.1
20260905071600 16 104 0.0 4.8 0.00 0.03 0.00 96 1019.1
20260905070101 16 0 0.0 3.2 0.00 0.03 0.00 96 1019.0
20260905064606 16 112 0.0 1.6 0.00 1.30 0.00 96 1019.1
20260905063103 16 0 0.0 4.8 0.00 1.30 0.00 95 1019.1
20260905061604 16 0 0.0 4.8 0.00 1.30 0.00 95 1019.1
20260905060058 16 102 0.0 4.8 0.00 1.30 0.00 95 1019.2
20260905054555 16 0 0.0 3.2 0.00 1.37 0.00 95 1019.2
20260905053111 16 0 0.0 6.4 0.00 1.37 0.00 95 1019.2
20260905051601 16 90 3.2 11.3 0.00 1.37 0.00 95 1019.1
20260905044555 16 80 0.0 6.4 0.00 1.37 1.37 95 1018.9
20260905043057 16 77 0.0 3.2 0.00 1.37 1.37 95 1018.7
20260905041606 16 0 0.0 3.2 0.00 1.37 1.37 95 1018.8
20260905040105 17 0 0.0 3.2 0.00 1.37 1.37 94 1018.9
20260905034619 17 0 0.0 0.0 0.00 1.37 1.37 94 1018.9
20260905033119 17 0 0.0 0.0 0.00 1.37 1.37 94 1019.1
20260905031614 17 0 0.0 0.0 0.00 1.37 1.37 94 1019.2
20260905030114 17 0 0.0 0.0 0.00 1.37 1.37 94 1019.1
20260905024605 17 0 0.0 0.0 0.00 1.40 1.37 94 1019.1
20260905023127 17 0 0.0 0.0 0.00 1.40 1.37 94 1019.2
20260905021605 17 0 0.0 0.0 0.00 1.40 1.37 94 1019.1
20260905014606 17 0 1.6 8.0 0.00 3.02 1.37 94 1018.7
20260905013103 17 0 0.0 9.7 0.00 3.02 1.37 94 1018.6
20260905011606 18 0 0.0 4.8 0.00 3.02 1.37 95 1018.3
20260905010112 18 0 0.0 4.8 0.00 3.02 1.37 94 1018.2
20260905004633 18 70 0.0 3.2 0.00 3.02 1.37 94 1017.9
20260905003124 18 0 0.0 3.2 0.00 3.02 1.37 93 1018.0
20260905001603 18 64 0.0 3.2 0.00 3.02 1.37 92 1018.0
20260905000123 18 0 0.0 3.2 0.00 3.02 1.37 92 1017.9
20260904234556 18 69 0.0 4.8 0.00 3.02 1.37 91 1017.9
20260904233105 18 0 0.0 0.0 0.00 3.02 1.37 91 1017.8
20260904231604 18 0 1.6 4.8 0.00 3.02 1.37 91 1017.7
20260904230114 18 0 0.0 3.2 0.00 3.02 1.37 91 1017.6
20260904224555 18 89 0.0 6.4 0.00 3.02 1.37 92 1017.7
20260904223057 18 134 0.0 4.8 0.00 3.02 1.37 92 1017.8
20260904221553 18 75 1.6 4.8 0.00 3.02 1.37 91 1017.7
20260904220053 18 0 1.6 6.4 0.00 3.02 1.37 91 1017.6
20260904214607 19 0 0.0 6.4 0.00 3.02 1.37 91 1017.5
20260904213108 19 0 1.6 6.4 0.00 3.02 1.37 90 1017.4
20260904211603 19 88 1.6 6.4 0.00 3.02 1.37 90 1017.3
20260904210104 19 0 1.6 9.7 0.00 3.02 1.37 90 1017.3
20260904204601 20 60 1.6 6.4 0.00 3.02 1.37 89 1017.2
20260904203057 19 0 1.6 4.8 0.00 3.02 1.37 90 1017.1
20260904201633 19 0 3.2 8.0 0.00 3.02 1.37 89 1017.1
20260904200107 19 0 0.0 6.4 0.00 3.02 1.37 90 1017.1
20260904194603 19 123 1.6 6.4 0.00 3.02 1.37 90 1016.8
20260904193056 19 24 0.0 6.4 0.03 3.02 1.37 90 1016.9
20260904191603 19 85 0.0 6.4 0.03 3.02 1.37 90 1016.8
20260904184553 18 83 1.6 6.4 0.03 3.02 1.37 92 1016.8
20260904183117 18 137 1.6 8.0 0.00 2.97 1.32 92 1016.8
20260904181604 18 104 1.6 8.0 0.00 2.97 1.32 92 1016.8
20260904180100 18 119 1.6 6.4 0.00 2.97 1.32 93 1016.8
20260904174605 18 106 1.6 4.8 0.00 2.97 1.32 93 1016.8
20260904173103 18 143 3.2 6.4 0.00 2.97 1.32 92 1016.7
20260904171615 17 53 1.6 6.4 0.00 2.97 1.32 94 1016.8
20260904170057 17 97 1.6 9.7 0.00 2.97 1.32 94 1016.7
20260904164634 17 0 0.0 3.2 0.00 2.97 1.32 96 1016.6
20260904163101 17 0 0.0 4.8 0.00 2.97 1.32 97 1016.7
20260904161559 17 67 0.0 6.4 0.00 2.97 1.32 97 1016.6
20260904160057 16 34 0.0 4.8 0.00 2.97 1.32 96 1016.7
20260904154605 16 352 0.0 8.0 0.00 2.97 1.32 96 1016.5
20260904153113 16 0 1.6 6.4 0.00 2.97 1.32 96 1016.2
20260904151601 16 61 1.6 6.4 0.00 2.97 1.32 97 1016.0
20260904150057 16 46 0.0 6.4 0.00 2.97 1.32 97 1015.8
20260904144604 16 62 0.0 4.8 0.00 2.97 1.32 98 1015.8
20260904143103 16 59 0.0 8.0 0.00 2.97 1.32 99 1015.8
20260904141603 15 0 1.6 8.0 0.00 2.97 1.32 99 1015.4
20260904134604 15 0 3.2 6.4 0.00 2.97 1.32 99 1015.3
20260904133106 15 0 1.6 12.9 0.00 2.97 1.32 99 1015.1
20260904131612 15 29 1.6 6.4 0.00 2.97 1.32 99 1015.1
20260904130100 15 0 0.0 8.0 0.00 2.97 1.32 99 1015.1
20260904124607 15 124 3.2 9.7 0.00 2.97 1.32 99 1014.9
20260904123105 15 57 1.6 11.3 0.00 2.97 1.32 99 1014.9
20260904121606 14 63 1.6 9.7 0.00 2.97 1.32 99 1014.6
20260904120108 14 0 1.6 6.4 0.00 2.97 1.32 99 1014.6
20260904114608 14 38 0.0 4.8 0.00 2.97 1.32 98 1014.4
20260904113106 14 46 1.6 6.4 0.00 2.97 1.32 98 1014.1
20260904111606 14 44 1.6 6.4 0.00 2.97 1.32 98 1013.9
20260904104559 14 0 0.0 9.7 0.00 2.97 1.32 98 1013.6
20260904103057 14 156 1.6 8.0 0.00 2.97 1.32 98 1013.4